Location: ?????
(36.0096°N, 43.6640°E)
Time: 23:45:19
(UTC+00:00)

Daily predictions for brighter satellites

Satellite Brightness Start Highest point End
(mag) Time Altitude Azimuth Time Altitude Azimuth Time Altitude Azimuth
USA 234 3.3 14:05:15 10° ESE 14:11:41 64° NE 14:18:07 10° NW
SL-4 R/B 3.7 14:08:41 10° WNW 14:13:08 45° SW 14:17:42 10° SSE
Cosmos 1862 3.3 14:10:41 10° N 14:14:40 73° E 14:18:39 10° SSE
Iridium 2 3.6 14:13:36 10° N 14:17:22 75° E 14:21:05 10° S
Cosmos 1606 2.6 14:18:16 10° S 14:22:01 89° E 14:25:47 10° N
Nadezhda 4 Rocket 4.3 14:16:09 10° N 14:22:09 44° E 14:28:09 10° SSE
Meteor PRIRODA 4.1 14:19:19 10° S 14:22:57 67° W 14:26:35 10° NNW
H-2A R/B 2.7 14:22:27 10° SE 14:27:05 32° ENE 14:31:38 10° N
ATLAS 3B R/B 3.9 14:20:11 10° NW 14:27:16 53° WSW 14:34:32 10° S
Cosmos 1777 Rocket 4.0 14:23:09 10° NNW 14:28:27 84° ENE 14:33:44 10° SSE
Cosmos 1408 Rocket 3.7 14:25:14 10° N 14:29:26 49° E 14:33:40 10° SSE
Cosmos 1743 Rocket 4.4 14:29:11 10° NNE 14:32:53 27° ENE 14:36:33 10° SE
AQUARIUS 4.1 14:29:33 10° SSE 14:33:58 64° ENE 14:38:25 10° N
CZ-2C R/B 3.1 14:32:50 10° NNE 14:37:36 36° E 14:42:19 10° SSE
GPS 2-04 Rocket1 3.8 14:35:05 10° SW 14:38:48 34° SSE 14:42:07 12° E
Cosmos 2034 Rocket 3.9 14:34:49 10° S 14:40:58 79° E 14:47:08 10° N
Cosmos 468 Rocket 4.2 14:36:40 10° S 14:41:32 46° ESE 14:46:28 10° NNE
CZ-4B R/B 4.4 14:37:54 10° S 14:42:00 43° W 14:45:56 10° NNW
Atlas Centaur 2 3.1 14:43:03 10° WSW 14:45:56 23° SSW 14:48:53 10° SE
SKYMED 2 3.8 14:46:59 10° NNE 14:51:12 47° E 14:55:22 10° S
Cosmos 1782 3.6 14:50:49 10° SSE 14:54:17 29° E 14:56:49 15° NE
Cosmos 540 Rocket 4.0 14:50:49 10° SSE 14:55:25 35° E 14:59:10 15° NE
SMAP 3.8 14:54:34 10° S 14:59:07 55° W 15:03:41 10° NNW
CZ-4B DEB 4.3 14:53:52 10° SSE 14:59:25 84° W 15:04:57 10° NNW
Cosmos 1697 Rocket 3.6 14:57:18 10° N 15:01:51 25° ENE 15:04:04 19° E
GEOS 3 Rocket 4.3 14:58:13 14° ESE 15:02:01 32° NE 15:06:35 10° NNW
SJ 16-02 2.2 14:57:52 10° NNW 15:02:07 52° WSW 15:06:21 10° S
Cosmos 1980 Rocket 4.0 15:00:18 10° NNE 15:01:25 12° NE 15:01:25 12° NE
Cosmos 1500 Rocket 3.5 14:59:24 10° N 15:03:50 69° E 15:08:12 10° SSE
Cosmos 2082 Rocket 3.1 15:01:10 10° SSE 15:05:57 29° ESE 15:08:02 23° ENE
Cosmos 1634 Rocket 4.0 15:01:25 10° S 15:07:33 59° E 15:13:46 10° NNE
COSMOS 2406 3.4 15:02:14 10° S 15:07:48 53° ESE 15:12:19 16° NE
Cosmos 1340 Rocket 2.8 15:06:44 10° N 15:10:49 89° E 15:14:52 10° S
PAYLOAD B 4.3 15:06:24 10° SSE 15:12:00 84° WSW 15:17:39 10° NNW
Cosmos 1933 3.2 15:08:42 10° S 15:12:46 87° E 15:16:50 10° N
Cosmos 1656 3.6 15:07:24 10° NNW 15:12:54 63° ENE 15:18:25 10° SSE
Cosmos 1805 Rocket 3.6 15:10:16 10° N 15:14:29 49° E 15:18:40 10° SSE
Cosmos 1812 3.9 15:11:55 10° SSE 15:14:15 25° ESE 15:14:15 25° ESE
Cosmos 44 3.3 15:12:23 10° NNW 15:16:58 48° ENE 15:19:24 24° ESE
Meteor 1-26 Rocket 4.3 15:12:10 10° S 15:17:55 65° E 15:23:52 10° NNE
SJ-11-01 4.3 15:13:17 10° SSE 15:17:56 58° ENE 15:22:36 10° N
H-2A R/B 4.2 15:23:39 13° SE 15:23:39 13° SE 15:24:27 10° SE
SL-08 RB Rocket 4.0 15:18:43 10° SE 15:23:06 43° ENE 15:27:30 10° N
Cosmos 1763 Rocket 3.9 15:20:04 10° SSW 15:25:03 60° WNW 15:30:05 10° N
Cosmos 841 Rocket 3.5 15:20:34 10° S 15:25:36 54° ESE 15:27:54 30° NE
Cosmos 1937 Rocket 4.0 15:23:10 10° N 15:28:05 37° ENE 15:28:20 36° ENE
Cosmos 1602 3.5 15:24:18 10° N 15:28:08 73° E 15:31:59 10° SSE
Sich 1 3.0 15:24:20 10° N 15:28:32 55° E 15:32:44 10° SSE
Cosmos 2026 Rocket 3.8 15:23:45 10° N 15:29:55 74° E 15:35:58 10° SSE
Cosmos 2195 Rocket 4.4 15:25:34 10° N 15:31:43 89° W 15:37:55 10° S
CZ-4C R/B 2.6 15:31:48 81° ESE 15:31:48 81° ESE 15:35:02 10° S
CZ-4C R/B 4.3 15:27:01 10° N 15:31:30 19° NE 15:31:30 19° NE
COSMOS 2455 2.8 15:29:33 10° SSW 15:35:27 62° ESE 15:37:56 35° NE
BREEZE-M DEB (TANK) 3.5 15:30:14 10° NW 15:36:17 70° SW 15:37:05 46° SSE
Okean O Rocket 1.6 15:33:43 10° S 15:38:08 83° W 15:42:36 10° NNW
COSMO-SKYMED 1 3.6 15:35:04 10° N 15:39:13 45° WNW 15:43:20 10° SW
USA 229 DEB 4.1 15:32:33 10° NNW 15:39:46 51° NE 15:43:24 31° ESE
USA 229 4.1 15:32:38 10° NNW 15:39:52 51° NE 15:43:23 31° ESE
Cosmos 1833 Rocket 3.2 15:35:45 10° SW 15:41:16 59° WNW 15:45:51 15° N
CZ-4B R/B 3.5 15:35:58 10° S 15:41:26 66° WSW 15:46:50 10° NNW
deb Chang Zheng 4 4.2 15:38:46 10° S 15:42:58 57° W 15:47:13 10° NNW
Cosmos 2360 4.3 15:38:53 10° NNW 15:44:28 51° ENE 15:45:01 49° E
Lacrosse 5 3.8 15:40:18 10° WNW 15:44:42 30° WSW 15:49:04 10° S
Cosmos 990 Rocket 4.0 15:40:08 10° NNW 15:45:20 77° WSW 15:50:28 10° S
Landsat 5 4.2 15:42:26 14° N 15:45:55 50° WNW 15:49:50 10° SSW
Meteor 2-21 4.3 15:41:42 10° N 15:47:49 89° W 15:53:51 10° S
ARGOS 3.4 15:45:57 10° S 15:51:20 69° WSW 15:56:45 10° NNW
Spot 2 4.3 15:58:17 10° SSE 16:03:17 86° ENE 16:08:27 10° NNW
NOSS 3-1 (A) 4.1 15:55:28 10° NNW 16:03:22 78° ENE 16:09:32 23° SE
H-2A R/B 4.1 16:02:01 10° SSW 16:06:26 27° W 16:10:48 10° NW
Cosmos 1814 Rocket 4.1 16:05:21 10° SSW 16:09:58 69° S 16:09:58 69° S
Meteor 2-15 4.4 16:10:55 10° S 16:16:15 68° SSE 16:16:15 68° SSE
ATLAS 3B CENTAUR R/B 4.4 15:59:55 10° SW 16:17:22 50° SSE 16:21:45 39° SE
GPS 2-04 Rocket1 4.4 16:13:54 10° WSW 16:16:09 31° WSW 16:16:09 31° WSW
Cosmos 1898 Rocket 4.3 16:15:29 10° NNW 16:20:31 48° WSW 16:25:29 10° S
Cosmos 1697 Rocket 3.7 16:40:41 10° NW 16:45:55 41° WSW 16:45:59 41° WSW
Cosmos 1980 Rocket 4.3 16:41:57 10° NNW 16:43:14 17° NNW 16:43:14 17° NNW
Cosmos 2082 Rocket 3.5 16:44:41 10° SW 16:49:51 35° WNW 16:49:56 35° WNW
CZ-4C R/B 4.5 17:14:06 10° NNW 17:16:43 25° NNW 17:16:43 25° NNW
